[[{"header":{"parameterUnit":"m.s-1","parameterCategory":1,"la1":30.2991,"la2":30.254,"lo1":-89.0895,"lo2":-89.0444,"dy":0.0017,"dx":0.0017,"nx":28,"ny":28,"refTime":"2024-07-07T03:00:00:Z","depth":0,"parameterNumber":2,"parameterNumberName":"U-component_of_WINDS"},"data":[0,0,0,0,0,0,0,0,0,0,0,0,0,0,0,0,0,0,0,0,0,0,0,0,0,0,0,0,0,0,0,0,0,0,0,0,0,0,0,0,0,0,0,0,0,0,0,0,0,0,0,0,0,0,0,0,0,0,0.6527,0.6527,0,0.6555,0.6556,0.6556,0.6571,0.6571,0.6571,0.6571,0.6604,0.6605,0.6606,0,0,0,0,0,0,0,0,0,0,0,0,0,0.649,0.649,0.6527,0.6527,0.6528,0.6555,0.6556,0.6556,0.6571,0.6571,0.6571,0.6571,0.6604,0.6605,0.6606,0,0,0,0,0,0,0,0,0,0,0,0,0,0.6511,0.649,0.6527,0.6538,0.654,0.6555,0.6556,0.6556,0.6571,0.6571,0.6571,0.6571,0.6603,0.6605,0.6606,0.6613,0,0,0.661,0.661,0,0,0,0,0,0,0,0,0.651,0.6512,0.6536,0.6538,0.6539,0.656,0.6554,0.6575,0.6571,0.6559,0.6571,0.6571,0.6589,0.6592,0.6597,0.6614,0.6616,0.661,0.6611,0.6611,0.6611,0,0,0,0,0,0,0,0.6508,0.6511,0.6538,0.6537,0.6538,0.6543,0.6546,0.6558,0.6574,0.656,0.6561,0.6564,0.659,0.6596,0.6598,0.6616,0.661,0.6611,0.6612,0.6612,0.6642,0.6642,0,0,0,0,0,0,0.6504,0.651,0.6537,0.6539,0.6524,0.6544,0.6547,0.6553,0.6574,0.6577,0.6564,0.6565,0.6594,0.6597,0.6599,0.6609,0.6611,0.6612,0.6613,0.6642,0.6642,0.6642,0,0,0,0,0,0,0.6503,0.6507,0.6536,0.6525,0.6529,0.6545,0.6551,0.6554,0.6559,0.6577,0.658,0.6567,0.6594,0.6597,0.6609,0.661,0.6613,0.6614,0.6642,0.6642,0.6642,0.6629,0,0,0,0,0,0,0.6502,0.6506,0.6508,0.6525,0.6529,0.6545,0.6551,0.6554,0.6561,0.6562,0.658,0.6583,0.6594,0.6607,0.661,0.6612,0.6615,0.6642,0.6642,0.6642,0.6629,0.6628,0.6627,0,0,0,0,0,0.6501,0.6504,0.6508,0.6511,0.6532,0.6545,0.6547,0.6559,0.6561,0.6564,0.6575,0.6583,0.661,0.6608,0.6612,0.6614,0.6641,0.6642,0.6642,0.6629,0.6628,0.6627,0,0,0,0,0,0,0.6489,0.6507,0.6511,0.652,0.653,0.6547,0.6551,0.6557,0.6568,0.6569,0.6584,0.6588,0.6598,0.6608,0.6606,0.6623,0.6627,0.6627,0.6616,0.6615,0.6614,0.6612,0.6616,0,0,0,0,0,0.6487,0.6494,0.651,0.6516,0.6521,0.6535,0.6541,0.6548,0.6561,0.6566,0.6578,0.659,0.6602,0.6609,0.6621,0.663,0.6635,0.6634,0.6633,0.6632,0.6633,0.6639,0.6639,0.6642,0.6642,0.6642,0,0,0.6483,0.6494,0.6498,0.6514,0.6523,0.6531,0.6539,0.6547,0.6554,0.6567,0.6579,0.6588,0.6604,0.6614,0.662,0.6622,0.6633,0.6632,0.6632,0.6633,0.6639,0.6639,0.6639,0.6642,0.6642,0.6642,0,0,0.6481,0.649,0.6496,0.6504,0.6518,0.6527,0.6528,0.6544,0.6551,0.6562,0.6572,0.6581,0.66,0.6611,0.6619,0.662,0.6628,0.6624,0.662,0.6626,0.6626,0.6626,0.6626,0.6627,0.6624,0.6624,0.6624,0,0.6475,0.6487,0.6498,0.6506,0.6513,0.6524,0.6531,0.6539,0.6556,0.6561,0.6564,0.6588,0.6599,0.6612,0.6613,0.6619,0.6622,0.6622,0.6625,0.6625,0.6625,0.6626,0.6626,0.6624,0.6624,0.6624,0.6624,0,0.648,0.6488,0.6491,0.6506,0.6513,0.6521,0.6534,0.654,0.6547,0.6557,0.6569,0.6582,0.6597,0.6601,0.6608,0.6615,0.6616,0.6621,0.6626,0.6624,0.6625,0.6625,0.6623,0.6623,0.6623,0.6623,0,0,0.6471,0.6491,0.6492,0.6499,0.6514,0.6522,0.653,0.6543,0.6548,0.656,0.6567,0.6583,0.6588,0.6597,0.6606,0.6611,0.6612,0.6616,0.6616,0.6614,0.6621,0.6617,0.6617,0.6617,0.6617,0.6617,0.662,0,0.6471,0.6484,0.6494,0.6505,0.6513,0.6524,0.6531,0.6542,0.6551,0.6561,0.6571,0.6582,0.6587,0.6593,0.6599,0.661,0.6613,0.661,0.6625,0.6626,0.6621,0.6618,0.6613,0.6615,0.662,0.662,0.662,0,0.6472,0.6482,0.6493,0.6508,0.6511,0.6518,0.653,0.6539,0.6552,0.6558,0.6568,0.6577,0.6587,0.6591,0.6606,0.6603,0.661,0.6617,0.6618,0.6619,0.6623,0.6619,0.6616,0.6616,0.6621,0.6621,0.6621,0,0.6464,0.648,0.6489,0.6495,0.6512,0.6516,0.6524,0.6537,0.6544,0.6556,0.6561,0.6574,0.6581,0.6592,0.6604,0.6606,0.6618,0.6623,0.6625,0.6624,0.6627,0.6626,0.6624,0.6631,0.6631,0.6631,0.6631,0,0.6463,0.6469,0.6485,0.6491,0.6498,0.6511,0.6518,0.6527,0.6539,0.6547,0.6558,0.6565,0.6582,0.6592,0.6602,0.6613,0.6617,0.6623,0.6625,0.6622,0.6621,0.6626,0.6626,0.6631,0.6631,0.6631,0.6631,0,0.6455,0.6466,0.6476,0.6492,0.6496,0.6501,0.6515,0.6521,0.6531,0.6541,0.6544,0.6559,0.6572,0.6585,0.6603,0.661,0.662,0.6624,0.6615,0.6617,0.6618,0.6617,0.6619,0.662,0.6626,0.6626,0.6626,0,0.6454,0.6459,0.6474,0.648,0.6487,0.6496,0.6503,0.6515,0.6523,0.6538,0.6542,0.6555,0.6566,0.6586,0.6599,0.6613,0.6617,0.6617,0.6619,0.6615,0.6617,0.6617,0.6617,0.6616,0.6616,0.6616,0.6616,0,0.645,0.6455,0.6464,0.6475,0.6483,0.6492,0.6502,0.6507,0.6522,0.6529,0.6541,0.6549,0.6566,0.6579,0.6595,0.6604,0.6613,0.6615,0.6616,0.6612,0.6606,0.6609,0.6613,0.6614,0.6615,0.6615,0.6615,0.6615,0.6445,0.645,0.6462,0.6471,0.648,0.6489,0.6496,0.6506,0.6515,0.6529,0.6537,0.6549,0.6563,0.6584,0.6593,0.6603,0.6606,0.6608,0.6608,0.6608,0.6607,0.6605,0.6606,0.6606,0.6606,0.6606,0.6606,0,0.6442,0.6449,0.6458,0.6472,0.648,0.6486,0.6497,0.6504,0.6514,0.6525,0.6535,0.655,0.6562,0.6577,0.6591,0.6596,0.66,0.6599,0.6599,0.6601,0.6604,0.6601,0.6596,0.6596,0.6596,0.6596,0.6596,0.6596,0.6441,0.6449,0.6456,0.6469,0.6477,0.6488,0.6494,0.6503,0.6512,0.6527,0.6537,0.6546,0.6559,0.6574,0.6586,0.659,0.6595,0.6593,0.6598,0.66,0.6601,0.6602,0.66,0.6594,0.6594,0.6595,0.6595,0.6595]},{"header":{"parameterUnit":"m.s-1","parameterCategory":1,"la1":30.2991,"la2":30.254,"lo1":-89.0895,"lo2":-89.0444,"dy":0.0017,"dx":0.0017,"nx":28,"ny":28,"refTime":"2024-07-07T03:00:00:Z","depth":0,"parameterNumber":3,"parameterNumberName":"V-component_of_WINDS"},"data":[0,0,0,0,0,0,0,0,0,0,0,0,0,0,0,0,0,0,0,0,0,0,0,0,0,0,0,0,0,0,0,0,0,0,0,0,0,0,0,0,0,0,0,0,0,0,0,0,0,0,0,0,0,0,0,0,0,0,1.4265,1.4265,0,1.4237,1.4237,1.4236,1.4194,1.4193,1.4193,1.4192,1.4164,1.4164,1.4164,0,0,0,0,0,0,0,0,0,0,0,0,0,1.4283,1.4283,1.4265,1.4265,1.4264,1.4237,1.4237,1.4236,1.4194,1.4193,1.4192,1.4192,1.4164,1.4164,1.4164,0,0,0,0,0,0,0,0,0,0,0,0,0,1.4267,1.4283,1.4265,1.424,1.4238,1.4237,1.4237,1.4236,1.4194,1.4193,1.4192,1.4191,1.4165,1.4164,1.4164,1.4187,0,0,1.4164,1.4164,0,0,0,0,0,0,0,0,1.4268,1.4267,1.4244,1.4242,1.4239,1.4218,1.4233,1.422,1.4195,1.4211,1.4192,1.4191,1.4183,1.4182,1.4179,1.4186,1.4184,1.4164,1.4164,1.4164,1.4164,0,0,0,0,0,0,0,1.427,1.4268,1.4254,1.4244,1.4241,1.4231,1.4227,1.423,1.4204,1.4209,1.4206,1.4203,1.4182,1.4179,1.4178,1.4184,1.4164,1.4164,1.4164,1.4164,1.4208,1.4209,0,0,0,0,0,0,1.4274,1.4269,1.4255,1.4253,1.4251,1.4231,1.4227,1.4226,1.4204,1.4199,1.4204,1.4202,1.418,1.4178,1.4177,1.4202,1.4164,1.4164,1.4164,1.4207,1.4208,1.4209,0,0,0,0,0,0,1.4275,1.4273,1.4256,1.426,1.4257,1.4232,1.4231,1.4226,1.4223,1.42,1.4195,1.4207,1.4179,1.4177,1.4185,1.42,1.4164,1.4164,1.4205,1.4207,1.4209,1.4252,0,0,0,0,0,0,1.4275,1.4274,1.4282,1.4261,1.4257,1.4264,1.4232,1.4226,1.4223,1.4219,1.4201,1.4196,1.4178,1.4185,1.4185,1.4199,1.4164,1.4204,1.4206,1.4208,1.4249,1.4255,1.426,0,0,0,0,0,1.4276,1.4295,1.4282,1.4281,1.4267,1.4265,1.4263,1.4241,1.4224,1.4232,1.4218,1.4197,1.4198,1.4186,1.4185,1.42,1.4203,1.4205,1.4208,1.4246,1.4253,1.426,0,0,0,0,0,0,1.4319,1.4292,1.4277,1.429,1.428,1.4258,1.4267,1.4249,1.4244,1.424,1.4213,1.4209,1.4221,1.4211,1.4198,1.4221,1.4197,1.42,1.4227,1.4233,1.4239,1.4241,1.4164,0,0,0,0,0,1.433,1.4331,1.4307,1.432,1.4316,1.4293,1.4291,1.4275,1.4264,1.4259,1.4245,1.4235,1.4233,1.4233,1.423,1.4247,1.4243,1.4257,1.4263,1.4267,1.427,1.4278,1.4285,1.4218,1.4218,1.4218,0,0,1.4353,1.4338,1.434,1.4329,1.4319,1.4321,1.429,1.4293,1.4294,1.426,1.4266,1.4255,1.4243,1.4255,1.426,1.4248,1.4287,1.4271,1.4274,1.4275,1.4282,1.4288,1.4294,1.422,1.4219,1.4219,0,0,1.4394,1.4383,1.4393,1.4384,1.437,1.4354,1.4357,1.4337,1.4329,1.4334,1.4309,1.431,1.4308,1.43,1.4295,1.4335,1.4316,1.4335,1.4363,1.4372,1.4377,1.4382,1.4396,1.4402,1.4337,1.4337,1.4337,0,1.4424,1.4425,1.4401,1.4405,1.4401,1.4371,1.4381,1.4373,1.4359,1.4357,1.4343,1.434,1.4329,1.4339,1.4349,1.4346,1.4349,1.4337,1.4378,1.4383,1.4387,1.44,1.4405,1.434,1.4339,1.4339,1.4339,0,1.4463,1.4464,1.4474,1.4461,1.4458,1.4465,1.4442,1.4442,1.4426,1.4412,1.4419,1.4405,1.4399,1.44,1.4384,1.4408,1.4401,1.4383,1.4359,1.4396,1.4408,1.4413,1.4343,1.4342,1.4342,1.4341,0,0,1.4531,1.4504,1.4508,1.4502,1.4484,1.4484,1.4491,1.4484,1.4485,1.4476,1.4481,1.448,1.4463,1.4458,1.4442,1.4449,1.4482,1.4431,1.443,1.4441,1.4508,1.4521,1.4528,1.4469,1.447,1.447,1.4509,0,1.457,1.4578,1.4556,1.4571,1.4572,1.4542,1.4548,1.4538,1.4525,1.4524,1.451,1.451,1.4488,1.4485,1.4491,1.4476,1.4495,1.4473,1.4474,1.4474,1.4478,1.4534,1.4548,1.4585,1.4513,1.4514,1.4515,0,1.4615,1.4609,1.4623,1.4605,1.4604,1.4609,1.4602,1.4601,1.459,1.458,1.4575,1.4555,1.456,1.4537,1.4544,1.453,1.4529,1.4522,1.4523,1.4522,1.4497,1.4535,1.4596,1.4602,1.4522,1.4521,1.4521,0,1.4664,1.4658,1.4666,1.4662,1.464,1.4645,1.4636,1.4623,1.4621,1.4614,1.4613,1.4607,1.4604,1.4601,1.458,1.4565,1.459,1.4565,1.4583,1.4583,1.4589,1.4589,1.4652,1.4588,1.4588,1.4588,1.4588,0,1.4709,1.4719,1.4688,1.4693,1.4703,1.4678,1.469,1.4678,1.4667,1.4669,1.4644,1.4647,1.462,1.462,1.4604,1.4613,1.4612,1.4604,1.46,1.4607,1.4608,1.4606,1.4603,1.459,1.4589,1.4589,1.4589,0,1.4765,1.4744,1.4751,1.473,1.4725,1.4734,1.4716,1.472,1.4706,1.4709,1.4709,1.4686,1.4685,1.4665,1.4659,1.4649,1.4664,1.4655,1.4668,1.4665,1.4684,1.4683,1.4748,1.4755,1.4687,1.4687,1.4688,0,1.4795,1.4802,1.4782,1.4782,1.4774,1.4774,1.4771,1.4747,1.4746,1.4733,1.4739,1.4736,1.4732,1.4732,1.4715,1.4711,1.4702,1.4725,1.4701,1.4708,1.4703,1.4703,1.4704,1.473,1.4731,1.4732,1.4732,0,1.4851,1.4841,1.4838,1.4831,1.4829,1.4823,1.4815,1.4817,1.479,1.479,1.4788,1.4786,1.478,1.4778,1.4771,1.4762,1.4743,1.474,1.4744,1.4751,1.4758,1.4755,1.4682,1.4738,1.4738,1.4737,1.4737,1.4737,1.4895,1.49,1.4887,1.4885,1.4876,1.487,1.4873,1.4859,1.4857,1.485,1.4836,1.4837,1.4826,1.4814,1.4808,1.4808,1.4797,1.4802,1.4804,1.4806,1.481,1.4758,1.4807,1.4807,1.4806,1.4806,1.4806,0,1.495,1.494,1.4938,1.4928,1.4927,1.4909,1.4899,1.49,1.4901,1.4891,1.4888,1.4887,1.4884,1.4868,1.4863,1.4867,1.4859,1.4867,1.4867,1.4865,1.482,1.4817,1.4874,1.4874,1.4874,1.4874,1.4874,1.4874,1.4978,1.4986,1.4974,1.4978,1.4968,1.4968,1.4965,1.4959,1.4951,1.4951,1.4949,1.4938,1.4926,1.4921,1.4918,1.4913,1.4913,1.4925,1.4917,1.4875,1.4868,1.4862,1.4859,1.4925,1.4925,1.4962,1.4963,1.4963]}]]